Fitchburg, MA

5:00 AM EDT on April 29, 2017 (GMT -0400)
Fitchburg Municipal

Weather History for KFIT - February, 2013

Change the Weather History Date:

Saturday, February 2, 2013

  Actual Average (KORH) Record (KORH)
Temperature  
Mean Temperature 22 °F -  
Max Temperature 28 °F 34 °F 55 °F (1973)
Min Temperature 16 °F 17 °F -10 °F (1961)
Degree Days  
Heating Degree Days 43    
Moisture  
Dew Point 3 °F    
Average Humidity 44    
Maximum Humidity 62    
Minimum Humidity 33    
Precipitation  
Precipitation 0.00 in - - ()
Sea Level Pressure  
Sea Level Pressure 30.13 in    
Wind  
Wind Speed 9 mph (WSW)    
Max Wind Speed 17 mph    
Max Gust Speed 24 mph    
Visibility 10 miles    
Events      
Averages and records for this station are not official NWS values.
T = Trace of Precipitation, MM = Missing Value Source: NWS Daily Summary

Daily Weather History Graph

Daily Weather History Graph

Search for Another Location

Airport or City:

Trip Planner

Search our weather history database for the weather conditions in past years. The results will help you decide how hot, cold, wet, or windy it might be!

Date:

Astronomy

Feb. 02, 2013 Rise Set
Actual Time 6:59 AM EST 5:02 PM EST
Civil Twilight 6:29 AM EST 5:32 PM EST
Nautical Twilight 5:56 AM EST 6:05 PM EST
Astronomical Twilight 5:23 AM EST 6:38 PM EST
Moon No Moon Rise 9:58 AM EST (2/2)
Length of Visible Light 11h 02m
Length of Day
10h 02m
Waning Gibbous, 60% of the Moon is Illuminated
Feb 2
Waning Gibbous
Feb 3
Last Quarter
Feb 10
New
Feb 17
First Quarter
Feb 25
Full

Hourly Weather History & Observations

Time (EST) Temp. Windchill Dew Point Humidity Pressure Visibility Wind Dir Wind Speed Gust Speed Precip Events Conditions
12:52 AM 21.0 °F 8.1 °F 3.9 °F 48% 30.09 in 10.0 mi West 13.8 mph 21.9 mph N/A   Clear
1:52 AM 19.9 °F 5.2 °F 5.0 °F 52% 30.13 in 10.0 mi West 17.3 mph 24.2 mph N/A   Clear
2:52 AM 19.0 °F 7.5 °F 1.9 °F 47% 30.14 in 10.0 mi WNW 10.4 mph - N/A   Clear
3:52 AM 18.0 °F 7.7 °F 1.9 °F 50% 30.16 in 10.0 mi WNW 8.1 mph - N/A   Clear
4:52 AM 17.1 °F 7.6 °F 1.0 °F 50% 30.19 in 10.0 mi WNW 6.9 mph - N/A   Clear
5:52 AM 16.0 °F 8.8 °F 1.0 °F 52% 30.19 in 10.0 mi West 4.6 mph - N/A   Clear
6:52 AM 16.0 °F - -0.0 °F 49% 30.21 in 10.0 mi Calm Calm - N/A   Clear
7:52 AM 17.1 °F 10.0 °F 1.0 °F 50% 30.23 in 10.0 mi West 4.6 mph - N/A   Clear
8:52 AM 19.9 °F 12.1 °F -0.0 °F 42% 30.24 in 10.0 mi West 5.8 mph - N/A   Clear
9:52 AM 21.9 °F 13.4 °F 1.0 °F 40% 30.24 in 10.0 mi West 6.9 mph - N/A   Clear
10:52 AM 24.1 °F 14.4 °F 3.0 °F 40% 30.21 in 10.0 mi WSW 9.2 mph - N/A   Clear
11:52 AM 26.1 °F 16.8 °F 3.0 °F 37% 30.18 in 10.0 mi South 9.2 mph - N/A   Clear
1:52 PM 28.0 °F 18.6 °F 3.9 °F 36% 30.11 in 10.0 mi South 10.4 mph 17.3 mph N/A   Clear
2:52 PM 28.9 °F 20.4 °F 3.9 °F 35% 30.09 in 10.0 mi SW 9.2 mph - N/A   Mostly Cloudy
3:52 PM 28.0 °F 20.0 °F 3.9 °F 36% 30.07 in 10.0 mi South 8.1 mph - N/A   Overcast
4:52 PM 28.0 °F 18.6 °F 1.9 °F 33% 30.06 in 10.0 mi SW 10.4 mph - N/A   Mostly Cloudy
5:52 PM 28.0 °F 20.0 °F 1.9 °F 33% 30.06 in 10.0 mi SW 8.1 mph - N/A   Clear
6:52 PM 27.0 °F 20.5 °F 3.0 °F 36% 30.06 in 10.0 mi SSW 5.8 mph - N/A   Clear
7:52 PM 26.1 °F 19.4 °F 5.0 °F 41% 30.06 in 10.0 mi South 5.8 mph - N/A   Clear
8:52 PM 26.1 °F 21.9 °F 7.0 °F 44% 30.06 in 10.0 mi SSW 3.5 mph - N/A   Clear
9:52 PM 26.1 °F 19.4 °F 6.1 °F 43% 30.05 in 10.0 mi SW 5.8 mph - N/A   Overcast
10:52 PM 26.1 °F 20.5 °F 8.1 °F 47% 30.05 in 10.0 mi Variable 4.6 mph - N/A   Overcast
11:52 PM 24.1 °F 16.0 °F 12.9 °F 62% 30.06 in 9.0 mi WSW 6.9 mph - N/A   Overcast